Weather History for Coleman, TX

Change the Weather History Date:

Friday, September 13, 2013

  Actual Average (KABI) Record (KABI)
Temperature  
Mean Temperature 80 °F 76 °F  
Max Temperature 95 °F 88 °F 101 °F (1893)
Min Temperature 66 °F 65 °F 50 °F (1902)
Degree Days  
Heating Degree Days 0 0  
Month to date heating degree days 0  
Since 1 July heating degree days 0  
Cooling Degree Days 16 12  
Month to date cooling degree days 174  
Year to date cooling degree days 2119  
Growing Degree Days 30 (Base 50)    
Moisture  
Dew Point 56 °F    
Average Humidity 45    
Maximum Humidity 75    
Minimum Humidity 22    
Precipitation  
Precipitation 0.00 in 0.08 in 2.28 in (1991)
Month to date precipitation 1.04  
Year to date precipitation 18.00  
Sea Level Pressure  
Sea Level Pressure 29.98 in    
Wind  
Wind Speed 4 mph (SE)    
Max Wind Speed 16 mph    
Max Gust Speed 21 mph    
Visibility 10 miles    
Events      
T = Trace of Precipitation, MM = Missing Value Source: NWS Daily Summary

Daily Weather History Graph

Daily Weather History Graph

Search for Another Location

Airport:

Trip Planner

Search our weather history database for the weather conditions in past years. The results will help you decide how hot, cold, wet, or windy it might be!

Date:

Astronomy

Sep. 13, 2013 Rise Set
Actual Time 7:20 AM CDT 7:45 PM CDT
Civil Twilight 6:56 AM CDT 8:10 PM CDT
Nautical Twilight 6:27 AM CDT 8:38 PM CDT
Astronomical Twilight 5:58 AM CDT 9:07 PM CDT
Moon 3:21 PM CDT (9/13) 1:07 AM CDT (9/13)
Length of Visible Light 13h 14m
Length of Day
12h 25m
First Quarter, 61% of the Moon is Illuminated
Sep 13
First Quarter
Sep 19
Full
Sep 26
Last Quarter
Oct 4
New
Oct 11
First Quarter

Hourly Weather History & Observations

Time (CDT) Temp. Heat Index Dew Point Humidity Pressure Visibility Wind Dir Wind Speed Gust Speed Precip Events Conditions
12:15 AM 77.2 °F - 58.1 °F 52% 30.03 in 10.0 mi ENE 4.6 mph - N/A   Overcast
12:35 AM 77.0 °F - 57.7 °F 51% 30.03 in 10.0 mi Calm Calm - N/A   Overcast
12:55 AM 75.7 °F - 58.6 °F 55% 30.03 in 10.0 mi Calm Calm - N/A   Mostly Cloudy
1:15 AM 76.3 °F - 58.3 °F 54% 30.03 in 10.0 mi Calm Calm - N/A   Scattered Clouds
1:35 AM 74.3 °F - 59.0 °F 59% 30.03 in 10.0 mi Calm Calm - N/A   Clear
1:55 AM 73.4 °F - 59.0 °F 61% 30.03 in 10.0 mi Calm Calm - N/A   Clear
2:15 AM 72.3 °F - 59.2 °F 63% 30.03 in 10.0 mi NW 3.5 mph - N/A   Clear
2:35 AM 71.6 °F - 59.0 °F 64% 30.03 in 10.0 mi WNW 3.5 mph - N/A   Clear
2:55 AM 72.0 °F - 58.6 °F 63% 30.02 in 10.0 mi West 4.6 mph - N/A   Clear
3:15 AM 71.6 °F - 58.5 °F 63% 30.01 in 10.0 mi WNW 4.6 mph - N/A   Clear
3:35 AM 69.8 °F - 57.2 °F 64% 30.01 in 10.0 mi Calm Calm - N/A   Clear
3:55 AM 69.8 °F - 58.1 °F 66% 30.01 in 10.0 mi Calm Calm - N/A   Clear
4:15 AM 69.6 °F - 58.6 °F 68% 30.01 in 10.0 mi Calm Calm - N/A   Clear
4:35 AM 69.1 °F - 58.8 °F 70% 30.01 in 10.0 mi Calm Calm - N/A   Clear
4:55 AM 69.1 °F - 58.6 °F 69% 30.01 in 10.0 mi Calm Calm - N/A   Clear
5:15 AM 68.4 °F - 58.5 °F 71% 30.01 in 10.0 mi WNW 3.5 mph - N/A   Clear
5:35 AM 68.0 °F - 58.5 °F 71% 30.01 in 10.0 mi WNW 3.5 mph - N/A   Clear
5:55 AM 68.0 °F - 58.5 °F 71% 30.01 in 10.0 mi WNW 4.6 mph - N/A   Clear
6:15 AM 68.0 °F - 58.5 °F 71% 30.01 in 10.0 mi West 3.5 mph - N/A   Clear
6:35 AM 67.1 °F - 57.0 °F 70% 30.01 in 10.0 mi Calm Calm - N/A   Clear
6:55 AM 67.1 °F - 57.2 °F 70% 30.02 in 10.0 mi Calm Calm - N/A   Clear
7:15 AM 66.4 °F - 58.1 °F 75% 30.02 in 10.0 mi Calm Calm - N/A   Clear
7:35 AM 66.4 °F - 58.3 °F 75% 30.03 in 10.0 mi WNW 3.5 mph - N/A   Clear
7:55 AM 67.5 °F - 59.0 °F 74% 30.03 in 10.0 mi WNW 4.6 mph - N/A   Clear
8:15 AM 68.9 °F - 59.2 °F 71% 30.03 in 10.0 mi WNW 3.5 mph - N/A   Clear
8:35 AM 70.7 °F - 59.4 °F 67% 30.03 in 10.0 mi Calm Calm - N/A   Clear
8:55 AM 73.0 °F - 59.5 °F 62% 30.04 in 10.0 mi Calm Calm - N/A   Scattered Clouds
9:15 AM 75.6 °F - 59.9 °F 58% 30.04 in 10.0 mi Calm Calm - N/A   Scattered Clouds
9:35 AM 78.8 °F - 59.9 °F 52% 30.04 in 10.0 mi WNW 3.5 mph - N/A   Mostly Cloudy
9:55 AM 79.7 °F - 59.7 °F 50% 30.04 in 10.0 mi Calm Calm - N/A   Scattered Clouds
10:15 AM 83.1 °F 83.3 °F 60.6 °F 46% 30.04 in 10.0 mi WNW 4.6 mph - N/A   Mostly Cloudy
10:35 AM 84.7 °F 84.8 °F 60.6 °F 44% 30.04 in 10.0 mi WNW 3.5 mph - N/A   Scattered Clouds
10:55 AM 86.7 °F 86.3 °F 59.5 °F 40% 30.03 in 10.0 mi North 3.5 mph - N/A   Clear
11:15 AM 87.8 °F 86.9 °F 58.8 °F 37% 30.03 in 10.0 mi Calm Calm - N/A   Clear
11:35 AM 89.4 °F 87.5 °F 55.4 °F 31% 30.03 in 10.0 mi South 8.1 mph - N/A   Clear
11:55 AM 90.0 °F 88.1 °F 55.8 °F 31% 30.02 in 10.0 mi South 6.9 mph - N/A   Clear
12:15 PM 90.9 °F 89.2 °F 55.9 °F 31% 30.02 in 10.0 mi East 8.1 mph - N/A   Clear
12:35 PM 90.3 °F 88.3 °F 55.2 °F 30% 30.01 in 10.0 mi SE 4.6 mph 16.1 mph N/A   Scattered Clouds
12:55 PM 90.1 °F 88.3 °F 55.4 °F 31% 30.00 in 10.0 mi ESE 3.5 mph 9.2 mph N/A   Mostly Cloudy
1:15 PM 89.8 °F 87.9 °F 55.4 °F 31% 29.99 in 10.0 mi East 5.8 mph - N/A   Mostly Cloudy
1:35 PM 91.8 °F 89.5 °F 54.0 °F 28% 29.98 in 10.0 mi ESE 15.0 mph 18.4 mph N/A   Mostly Cloudy
1:55 PM 92.5 °F 90.2 °F 53.8 °F 27% 29.98 in 10.0 mi ESE 11.5 mph 19.6 mph N/A   Mostly Cloudy
2:15 PM 93.0 °F 90.6 °F 53.6 °F 26% 29.95 in 10.0 mi ESE 10.4 mph 20.7 mph N/A   Mostly Cloudy
2:35 PM 92.3 °F 89.9 °F 53.4 °F 27% 29.96 in 10.0 mi ESE 15.0 mph 20.7 mph N/A   Scattered Clouds
2:55 PM 92.5 °F 90.2 °F 54.1 °F 27% 29.94 in 10.0 mi East 10.4 mph 18.4 mph N/A   Clear
3:15 PM 92.3 °F 89.9 °F 54.0 °F 27% 29.93 in 10.0 mi ESE 10.4 mph 18.4 mph N/A   Scattered Clouds
3:35 PM 94.6 °F 92.0 °F 53.1 °F 24% 29.93 in 10.0 mi SSE 12.7 mph 20.7 mph N/A   Scattered Clouds
3:55 PM 94.6 °F 92.3 °F 53.2 °F 25% 29.91 in 10.0 mi SE 10.4 mph 18.4 mph N/A   Scattered Clouds
4:15 PM 92.5 °F 90.2 °F 53.4 °F 27% 29.90 in 10.0 mi East 11.5 mph - N/A   Scattered Clouds
4:35 PM 93.9 °F 91.4 °F 53.4 °F 25% 29.89 in 10.0 mi SE 11.5 mph - N/A   Mostly Cloudy
4:55 PM 95.5 °F - 51.3 °F 22% 29.89 in 10.0 mi SSE 11.5 mph - N/A   Mostly Cloudy
5:15 PM 95.0 °F - 52.2 °F 23% 29.89 in 10.0 mi East 10.4 mph - N/A   Mostly Cloudy
5:35 PM 94.6 °F - 51.1 °F 23% 29.88 in 10.0 mi SSE 13.8 mph - N/A   Scattered Clouds
5:55 PM 94.1 °F - 50.7 °F 23% 29.88 in 10.0 mi SE 16.1 mph 19.6 mph N/A   Overcast
6:15 PM 93.7 °F - 50.2 °F 23% 29.88 in 10.0 mi SE 10.4 mph - N/A   Scattered Clouds
6:35 PM 92.7 °F - 50.9 °F 24% 29.88 in 10.0 mi ESE 12.7 mph - N/A   Clear
6:55 PM 92.7 °F - 50.0 °F 23% 29.88 in 10.0 mi SE 8.1 mph - N/A   Clear
7:15 PM 91.9 °F - 50.9 °F 25% 29.88 in 10.0 mi SSE 4.6 mph - N/A   Scattered Clouds
7:35 PM 90.3 °F - 50.9 °F 26% 29.88 in 10.0 mi SE 6.9 mph - N/A   Clear
7:55 PM 88.2 °F - 50.9 °F 28% 29.89 in 10.0 mi SE 4.6 mph - N/A   Clear
8:15 PM 86.5 °F - 50.0 °F 28% 29.89 in 10.0 mi SSE 3.5 mph - N/A   Scattered Clouds
8:35 PM 85.1 °F - 50.9 °F 31% 29.90 in 10.0 mi SE 3.5 mph - N/A   Mostly Cloudy
8:55 PM 84.9 °F - 50.2 °F 30% 29.91 in 10.0 mi SE 3.5 mph - N/A   Overcast
9:15 PM 82.8 °F - 51.8 °F 34% 29.92 in 10.0 mi East 4.6 mph - N/A   Mostly Cloudy
9:35 PM 82.0 °F - 51.1 °F 34% 29.93 in 10.0 mi East 4.6 mph - N/A   Scattered Clouds
9:55 PM 80.6 °F - 51.6 °F 36% 29.94 in 10.0 mi Calm Calm - N/A   Scattered Clouds
10:15 PM 81.9 °F - 51.4 °F 35% 29.94 in 10.0 mi Calm Calm - N/A   Scattered Clouds
10:35 PM 79.5 °F - 53.1 °F 40% 29.94 in 10.0 mi Calm Calm - N/A   Clear
10:55 PM 80.6 °F - 52.9 °F 38% 29.94 in 10.0 mi Calm Calm - N/A   Clear
11:15 PM 80.2 °F - 52.9 °F 39% 29.94 in 10.0 mi Calm Calm - N/A   Scattered Clouds
11:35 PM 80.2 °F 80.0 °F 53.1 °F 39% 29.94 in 10.0 mi Calm Calm - N/A   Mostly Cloudy
11:55 PM 78.8 °F - 54.0 °F 42% 29.94 in 10.0 mi Calm Calm - N/A   Mostly Cloudy